Date String (YYYY-MM-DD hh:mm:ss) UTC,Instrument flags,absolute air pressure of the measurement (hPa),sample flow rate (lpm),inlet stack bypass flow (lpm),air temperature of the measurement (°C),ambient temperature measured by the external sensor (°C),aerosol sample conditioner tube jacket temperature (°C),OPC LED temperature (°C),internal box temperature (°C),relative humidity of the measurement (%),span deviation,mass concentration of particles derived from Lorenz-Mie calculation of OPC scattering (μg/m³),mass concentration of particles derived from Lorenz-Mie calculation of OPC scattering (μg/m³),mass concentration of particles derived from Lorenz-Mie calculation of OPC scattering (μg/m³)
DateTimeUTC,F1_M11,P_M11,Q1_M11,Q2_M11,T1_M11,T2_M11,T3_M11,T4_M11,T5_M11,U1_M11,ZSPAN_M11,X2_M11,X0_M11,X1_M11
2024-03-21 10:00:00,SystemResetWarning,0825.3,5.01,000.00,021.2,020.5,000.0,029.9,023.1,17.4,0002.6,0006.35,0013.44,0005.41
2024-03-21 10:01:00,SystemResetWarning,0825.3,5.01,000.00,021.2,020.5,000.0,029.8,023.1,17.3,0003.2,0006.35,0013.76,0005.42
2024-03-21 10:02:00,SystemResetWarning,0825.4,4.99,000.00,021.2,020.5,000.0,029.8,023.1,17.2,0003.7,0006.36,0013.86,0005.41
2024-03-21 10:03:00,SystemResetWarning,0825.3,4.99,000.00,021.2,020.5,000.0,029.8,023.0,17.4,0004.2,0006.35,0013.88,0005.41
2024-03-21 10:04:00,SystemResetWarning,0825.3,4.99,000.00,021.2,020.5,000.0,029.8,023.0,17.4,0004.2,0006.31,0013.26,0005.40
2024-03-21 10:05:00,SystemResetWarning,0825.4,5.00,000.00,021.2,020.5,000.0,029.8,023.0,17.0,0004.9,0006.24,0013.10,0005.36
2024-03-21 10:06:00,SystemResetWarning,0825.4,5.01,000.00,021.2,020.4,000.0,029.8,023.0,17.1,0005.4,0006.20,0013.12,0005.32
2024-03-21 10:07:00,SystemResetWarning,0825.4,5.00,000.00,021.2,020.5,000.0,029.8,023.0,17.1,0001.9,0006.16,0013.23,0005.30
2024-03-21 10:08:00,SystemResetWarning,0825.4,5.00,000.00,021.2,020.5,000.0,029.8,023.0,17.0,0000.0,0006.13,0013.39,0005.27
2024-03-21 10:09:00,SystemResetWarning,0825.3,5.00,000.00,021.2,020.4,000.0,029.8,023.0,17.0,0000.0,0006.09,0014.04,0005.25
2024-03-21 10:10:00,SystemResetWarning,0825.3,4.99,000.00,021.2,020.4,000.0,029.8,023.0,17.1,0000.0,0006.06,0014.84,0005.23
2024-03-21 10:11:00,SystemResetWarning,0825.3,5.00,000.00,021.2,020.5,000.0,029.8,023.0,17.1,0000.0,0006.02,0014.64,0005.21
2024-03-21 10:12:00,SystemResetWarning,0825.4,5.00,000.00,021.2,020.5,000.0,029.8,023.0,17.2,0000.0,0006.03,0014.21,0005.21
2024-03-21 10:13:00,SystemResetWarning,0825.3,5.00,000.00,021.2,020.5,000.0,029.8,023.0,17.2,0000.0,0006.06,0014.75,0005.23
2024-03-21 10:14:00,SystemResetWarning,0825.3,5.00,000.00,021.2,020.5,000.0,029.8,023.0,17.2,0000.6,0006.07,0015.22,0005.23
2024-03-21 10:15:00,SystemResetWarning,0825.3,5.00,000.00,021.2,020.4,000.0,029.8,023.0,17.3,0005.3,0006.19,0018.16,0005.27
2024-03-21 10:16:00,SystemResetWarning,0825.3,5.00,000.00,021.2,020.4,000.0,029.8,023.0,17.2,0005.2,0006.27,0019.00,0005.34
2024-03-21 10:17:00,SystemResetWarning,0825.3,5.00,000.00,021.2,020.5,000.0,029.8,023.0,17.1,0004.8,0006.31,0019.26,0005.38
2024-03-21 10:18:00,SystemResetWarning,0825.3,5.00,000.00,021.2,020.4,000.0,029.8,023.0,17.0,0004.6,0006.30,0019.04,0005.40
2024-03-21 10:19:00,SystemResetWarning,0825.3,5.00,000.00,021.2,020.4,000.0,029.8,023.0,17.0,0004.7,0006.35,0018.87,0005.43
2024-03-21 10:20:00,SystemResetWarning,0825.3,5.01,000.00,021.2,020.4,000.0,029.8,023.0,17.0,0004.4,0006.36,0018.35,0005.43
2024-03-21 10:21:00,SystemResetWarning,0825.3,5.01,000.00,021.2,020.4,000.0,029.8,023.0,17.0,0004.8,0006.37,0017.70,0005.43
2024-03-21 10:22:00,SystemResetWarning,0825.3,4.99,000.00,021.2,020.4,000.0,029.8,023.0,17.1,0004.8,0006.37,0017.73,0005.46
2024-03-21 10:23:00,SystemResetWarning,0825.3,4.99,000.00,021.2,020.4,000.0,029.8,023.0,17.2,0004.9,0006.40,0017.49,0005.47
2024-03-21 10:24:00,SystemResetWarning,0825.3,5.00,000.00,021.2,020.4,000.0,029.7,023.0,17.3,0004.9,0006.37,0016.84,0005.47
2024-03-21 10:25:00,SystemResetWarning,0825.3,5.01,000.00,021.1,020.4,000.0,029.7,023.0,17.3,0004.9,0006.35,0016.69,0005.48
2024-03-21 10:26:00,SystemResetWarning,0825.3,5.01,000.00,021.1,020.4,000.0,029.7,023.0,17.3,0004.8,0006.29,0015.02,0005.49
2024-03-21 10:27:00,SystemResetWarning,0825.3,4.99,000.00,021.1,020.4,000.0,029.7,023.0,17.4,0004.3,0006.30,0015.30,0005.49
2024-03-21 10:28:00,SystemResetWarning,0825.3,4.99,000.00,021.1,020.4,000.0,029.7,023.0,17.4,0004.1,0006.36,0015.55,0005.54
2024-03-21 10:29:00,SystemResetWarning,0825.3,5.00,000.00,021.1,020.4,000.0,029.7,023.0,17.4,0004.0,0006.46,0015.94,0005.58
2024-03-21 10:30:00,SystemResetWarning,0825.3,5.01,000.00,021.1,020.4,000.0,029.7,023.0,17.4,0004.5,0006.47,0015.80,0005.61
2024-03-21 10:31:00,SystemResetWarning,0825.3,5.01,000.00,021.1,020.4,000.0,029.7,023.0,17.5,0004.4,0006.56,0015.70,0005.68
2024-03-21 10:32:00,SystemResetWarning,0825.3,4.99,000.00,021.1,020.4,000.0,029.7,023.0,17.5,0004.3,0006.63,0015.14,0005.74
2024-03-21 10:33:00,SystemResetWarning,0825.3,4.99,000.00,021.1,020.4,000.0,029.7,023.0,17.5,0004.1,0006.70,0015.74,0005.79
2024-03-21 10:34:00,SystemResetWarning,0825.3,5.00,000.00,021.1,020.4,000.0,029.7,022.9,17.5,0004.4,0006.73,0015.51,0005.82
2024-03-21 10:35:00,SystemResetWarning,0825.2,5.00,000.00,021.1,020.4,000.0,029.7,022.9,17.4,0004.7,0006.75,0015.45,0005.85
2024-03-21 10:36:00,SystemResetWarning,0825.3,5.00,000.00,021.1,020.4,000.0,029.7,022.9,17.4,0005.0,0006.81,0015.80,0005.88
2024-03-21 10:37:00,SystemResetWarning,0825.3,5.00,000.00,021.1,020.4,000.0,029.7,022.9,17.4,0005.1,0006.87,0015.11,0005.90
2024-03-21 10:38:00,SystemResetWarning,0825.3,5.00,000.00,021.1,020.4,000.0,029.7,022.9,17.4,0005.4,0006.89,0014.59,0005.90
2024-03-21 10:39:00,SystemResetWarning,0825.3,5.01,000.00,021.1,020.4,000.0,029.7,022.9,17.5,0005.5,0006.89,0017.04,0005.91
2024-03-21 10:40:00,SystemResetWarning,0825.3,5.00,000.00,021.1,020.4,000.0,029.7,022.9,17.5,0005.5,0006.88,0018.12,0005.93
2024-03-21 10:41:00,SystemResetWarning,0825.3,4.99,000.00,021.1,020.4,000.0,029.7,022.9,17.6,0005.1,0006.96,0019.71,0005.95
2024-03-21 10:42:00,SystemResetWarning,0825.3,4.99,000.00,021.1,020.4,000.0,029.7,022.9,17.6,0005.0,0007.02,0020.59,0005.96
2024-03-21 10:43:00,SystemResetWarning,0825.4,5.02,000.00,021.1,020.4,000.0,029.7,022.9,17.5,0005.0,0007.04,0020.62,0005.95
2024-03-21 10:44:00,SystemResetWarning,0825.4,5.00,000.00,021.1,020.4,000.0,029.7,022.9,17.5,0005.0,0007.00,0020.58,0005.94
2024-03-21 10:45:00,SystemResetWarning,0825.4,4.99,000.00,021.1,020.4,000.0,029.7,022.9,17.4,0004.6,0006.98,0020.57,0005.93
2024-03-21 10:46:00,SystemResetWarning,0825.3,4.99,000.00,021.1,020.4,000.0,029.7,022.9,17.4,0004.1,0006.94,0020.68,0005.92
2024-03-21 10:47:00,SystemResetWarning,0825.4,4.99,000.00,021.1,020.4,000.0,029.7,022.9,17.4,0003.8,0006.92,0021.25,0005.93
2024-03-21 10:48:00,SystemResetWarning,0825.4,5.00,000.00,021.1,020.3,000.0,029.7,022.9,17.3,0003.4,0006.86,0021.98,0005.92
2024-03-21 10:49:00,SystemResetWarning,0825.4,5.01,000.00,021.1,020.3,000.0,029.7,022.9,17.3,0003.0,0006.81,0022.16,0005.89
2024-03-21 10:50:00,SystemResetWarning,0825.4,5.01,000.00,021.1,020.4,000.0,029.7,022.9,17.2,0003.0,0006.76,0020.35,0005.87
2024-03-21 10:51:00,SystemResetWarning,0825.4,5.00,000.00,021.1,020.3,000.0,029.6,022.9,17.4,0002.6,0006.73,0018.96,0005.85
2024-03-21 10:52:00,SystemResetWarning,0825.4,5.00,000.00,021.0,020.4,000.0,029.6,022.9,17.5,0003.0,0006.72,0017.41,0005.83
2024-03-21 10:53:00,SystemResetWarning,0825.4,4.99,000.00,021.0,020.3,000.0,029.6,022.9,17.3,0003.7,0006.61,0016.25,0005.79
2024-03-21 10:54:00,SystemResetWarning,0825.4,5.00,000.00,021.0,020.3,000.0,029.6,022.9,17.4,0003.1,0006.56,0016.19,0005.76
2024-03-21 10:55:00,SystemResetWarning,0825.4,4.99,000.00,021.0,020.3,000.0,029.6,022.9,17.4,0003.3,0006.54,0015.82,0005.75
2024-03-21 10:56:00,SystemResetWarning,0825.4,5.00,000.00,021.0,020.3,000.0,029.6,022.8,17.3,0004.5,0006.53,0016.53,0005.74
2024-03-21 10:57:00,SystemResetWarning,0825.4,5.00,000.00,021.0,020.3,000.0,029.6,022.9,17.3,0004.5,0006.55,0017.00,0005.73
2024-03-21 10:58:00,SystemResetWarning,0825.4,5.01,000.00,021.0,020.3,000.0,029.6,022.8,17.3,0004.6,0006.58,0016.55,0005.72
2024-03-21 10:59:00,SystemResetWarning,0825.4,5.00,000.00,021.0,020.3,000.0,029.6,022.8,17.3,0004.6,0006.56,0015.49,0005.70
